Back to catalog

COSMOS 1909

AliveMilitaryPO
NORAD 18788·PAYLOAD·🇷🇺 Russia

Launched Jan 15, 1988 from Plesetsk Cosmodrome

Loading…

Next Passes (next 24 hours)

TLE

FreshSource: Space-Track

Epoch: Sep 14, 2026, 09:05 UTC

1 18788U 88002A   26257.37864038  .00000005  00000-0 -32242-4 0  9994
2 18788  82.6103 220.7141 0002782 103.7805  51.4872 12.62872500782067

Track COSMOS 1909 in real time with AllMySat

Download on the App Store